TimeCST,TemperatureF,Dew PointF,Humidity,Sea Level PressureIn,VisibilityMPH,Wind Direction,Wind SpeedMPH,Gust SpeedMPH,PrecipitationIn,Events,Conditions,WindDirDegrees,DateUTC
12:15 AM,53.6,41.0,62,29.85,10.0,South,23.0,32.2,N/A,,Clear,180,2013-02-18 06:15:00
12:35 AM,53.6,41.0,62,29.85,10.0,South,19.6,28.8,N/A,,Clear,180,2013-02-18 06:35:00
12:55 AM,53.6,42.8,67,29.85,10.0,South,19.6,26.5,N/A,,Clear,170,2013-02-18 06:55:00
1:15 AM,53.6,42.8,67,29.85,10.0,South,17.3,24.2,N/A,,Clear,170,2013-02-18 07:15:00
1:35 AM,53.6,42.8,67,29.84,10.0,South,13.8,24.2,N/A,,Scattered Clouds,170,2013-02-18 07:35:00
1:55 AM,53.6,42.8,67,29.83,10.0,South,15.0,-,N/A,,Scattered Clouds,170,2013-02-18 07:55:00
2:15 AM,53.6,42.8,67,29.82,10.0,South,17.3,25.3,N/A,,Mostly Cloudy,170,2013-02-18 08:15:00
2:35 AM,53.6,44.6,72,29.81,10.0,South,16.1,21.9,N/A,,Overcast,170,2013-02-18 08:35:00
2:55 AM,53.6,44.6,72,29.80,10.0,South,17.3,23.0,N/A,,Overcast,170,2013-02-18 08:55:00
3:15 AM,53.6,44.6,72,29.80,10.0,South,13.8,20.7,N/A,,Overcast,180,2013-02-18 09:15:00
3:35 AM,53.6,44.6,72,29.79,10.0,South,13.8,23.0,N/A,,Overcast,170,2013-02-18 09:35:00
3:55 AM,53.6,44.6,72,29.78,10.0,South,12.7,18.4,N/A,,Overcast,180,2013-02-18 09:55:00
4:15 AM,55.4,46.4,72,29.77,10.0,South,16.1,20.7,N/A,,Overcast,180,2013-02-18 10:15:00
4:35 AM,55.4,46.4,72,29.77,10.0,South,16.1,23.0,N/A,,Overcast,180,2013-02-18 10:35:00
4:55 AM,55.4,46.4,72,29.76,10.0,South,13.8,24.2,N/A,,Overcast,180,2013-02-18 10:55:00
5:15 AM,55.4,46.4,72,29.76,10.0,South,16.1,21.9,N/A,,Overcast,170,2013-02-18 11:15:00
5:35 AM,55.4,46.4,72,29.75,10.0,South,17.3,23.0,N/A,,Overcast,170,2013-02-18 11:35:00
5:55 AM,55.4,48.2,77,29.75,10.0,South,13.8,21.9,N/A,,Overcast,180,2013-02-18 11:55:00
6:15 AM,55.4,48.2,77,29.75,10.0,South,12.7,19.6,N/A,,Overcast,180,2013-02-18 12:15:00
6:35 AM,55.4,48.2,77,29.77,10.0,South,9.2,17.3,N/A,,Overcast,190,2013-02-18 12:35:00
6:55 AM,55.4,50.0,82,29.76,10.0,South,13.8,20.7,N/A,,Overcast,180,2013-02-18 12:55:00
7:15 AM,55.4,50.0,82,29.76,10.0,South,16.1,20.7,N/A,,Overcast,190,2013-02-18 13:15:00
7:35 AM,57.2,50.0,77,29.76,10.0,South,17.3,24.2,N/A,,Overcast,190,2013-02-18 13:35:00
8:35 AM,59.0,50.0,72,29.77,10.0,SSW,18.4,24.2,N/A,,Clear,200,2013-02-18 14:35:00
8:55 AM,60.8,50.0,68,29.77,10.0,SSW,18.4,25.3,N/A,,Scattered Clouds,200,2013-02-18 14:55:00
9:15 AM,62.6,50.0,63,29.77,10.0,SSW,17.3,27.6,N/A,,Scattered Clouds,210,2013-02-18 15:15:00
9:35 AM,62.6,50.0,63,29.78,10.0,SW,21.9,33.4,N/A,,Scattered Clouds,230,2013-02-18 15:35:00
9:55 AM,64.4,50.0,59,29.78,10.0,SW,18.4,26.5,N/A,,Scattered Clouds,220,2013-02-18 15:55:00
10:15 AM,64.4,50.0,59,29.78,10.0,SW,18.4,29.9,N/A,,Scattered Clouds,230,2013-02-18 16:15:00
10:35 AM,66.2,46.4,49,29.78,10.0,SW,20.7,31.1,N/A,,Scattered Clouds,230,2013-02-18 16:35:00
10:55 AM,68.0,46.4,46,29.79,10.0,WSW,20.7,31.1,N/A,,Scattered Clouds,250,2013-02-18 16:55:00
11:15 AM,66.2,42.8,43,29.79,10.0,WSW,20.7,33.4,N/A,,Scattered Clouds,250,2013-02-18 17:15:00
11:35 AM,68.0,41.0,37,29.79,10.0,WSW,19.6,28.8,N/A,,Clear,250,2013-02-18 17:35:00
11:55 AM,69.8,41.0,35,29.79,10.0,WSW,19.6,28.8,N/A,,Clear,250,2013-02-18 17:55:00
12:15 PM,64.4,33.8,32,29.80,10.0,WNW,15.0,29.9,N/A,,Clear,290,2013-02-18 18:15:00
12:35 PM,64.4,32.0,30,29.81,10.0,WNW,20.7,28.8,N/A,,Clear,290,2013-02-18 18:35:00
12:55 PM,62.6,32.0,32,29.82,10.0,West,21.9,28.8,N/A,,Clear,280,2013-02-18 18:55:00
1:15 PM,62.6,32.0,32,29.83,10.0,WNW,19.6,28.8,N/A,,Clear,300,2013-02-18 19:15:00
1:35 PM,62.6,30.2,30,29.84,10.0,WNW,18.4,32.2,N/A,,Clear,290,2013-02-18 19:35:00
1:55 PM,60.8,32.0,34,29.85,10.0,NW,19.6,31.1,N/A,,Clear,310,2013-02-18 19:55:00
2:15 PM,60.8,32.0,34,29.86,10.0,WNW,20.7,28.8,N/A,,Clear,300,2013-02-18 20:15:00
2:35 PM,60.8,32.0,34,29.87,10.0,NW,17.3,27.6,N/A,,Clear,310,2013-02-18 20:35:00
2:55 PM,60.8,32.0,34,29.87,10.0,NW,17.3,29.9,N/A,,Clear,310,2013-02-18 20:55:00
3:15 PM,60.8,32.0,34,29.88,10.0,WNW,15.0,25.3,N/A,,Clear,290,2013-02-18 21:15:00
3:35 PM,60.8,32.0,34,29.89,10.0,NW,15.0,27.6,N/A,,Clear,310,2013-02-18 21:35:00
3:55 PM,60.8,32.0,34,29.89,10.0,WNW,17.3,24.2,N/A,,Clear,290,2013-02-18 21:55:00
4:15 PM,60.8,32.0,34,29.90,10.0,NW,17.3,25.3,N/A,,Clear,310,2013-02-18 22:15:00
4:35 PM,60.8,32.0,34,29.91,10.0,NNW,15.0,25.3,N/A,,Clear,330,2013-02-18 22:35:00
4:55 PM,59.0,32.0,36,29.92,10.0,NNW,18.4,24.2,N/A,,Clear,330,2013-02-18 22:55:00
5:15 PM,59.0,32.0,36,29.94,10.0,NNW,16.1,23.0,N/A,,Clear,330,2013-02-18 23:15:00
5:35 PM,59.0,30.2,34,29.95,10.0,NNW,13.8,20.7,N/A,,Clear,330,2013-02-18 23:35:00
5:55 PM,55.4,30.2,38,29.96,10.0,NW,12.7,18.4,N/A,,Clear,310,2013-02-18 23:55:00
6:15 PM,55.4,30.2,38,29.98,10.0,NW,11.5,20.7,N/A,,Clear,320,2013-02-19 00:15:00
6:35 PM,53.6,30.2,41,30.00,10.0,NNW,9.2,-,N/A,,Clear,330,2013-02-19 00:35:00
6:55 PM,53.6,30.2,41,30.01,10.0,NW,3.5,-,N/A,,Clear,320,2013-02-19 00:55:00
7:15 PM,51.8,30.2,44,30.02,10.0,Calm,Calm,-,N/A,,Clear,0,2013-02-19 01:15:00
7:35 PM,51.8,30.2,44,30.04,10.0,Calm,Calm,-,N/A,,Clear,0,2013-02-19 01:35:00
7:55 PM,50.0,30.2,47,30.04,10.0,NW,5.8,-,N/A,,Clear,310,2013-02-19 01:55:00
8:15 PM,50.0,30.2,47,30.05,10.0,Calm,Calm,-,N/A,,Clear,0,2013-02-19 02:15:00
8:35 PM,50.0,30.2,47,30.06,10.0,Calm,Calm,-,N/A,,Clear,0,2013-02-19 02:35:00
8:55 PM,46.4,30.2,53,30.07,10.0,Calm,Calm,-,N/A,,Clear,0,2013-02-19 02:55:00
9:15 PM,48.2,30.2,50,30.09,10.0,Calm,Calm,-,N/A,,Clear,0,2013-02-19 03:15:00
9:55 PM,48.2,28.4,46,30.11,10.0,NNW,6.9,-,N/A,,Clear,340,2013-02-19 03:55:00
10:15 PM,50.0,26.6,40,30.12,10.0,North,9.2,-,N/A,,Clear,350,2013-02-19 04:15:00
10:35 PM,48.2,26.6,43,30.13,10.0,North,9.2,-,N/A,,Clear,350,2013-02-19 04:35:00
10:55 PM,46.4,26.6,46,30.13,10.0,North,10.4,-,N/A,,Clear,360,2013-02-19 04:55:00
11:15 PM,46.4,26.6,46,30.13,10.0,North,9.2,-,N/A,,Clear,360,2013-02-19 05:15:00
11:35 PM,46.4,26.6,46,30.14,10.0,North,6.9,-,N/A,,Clear,10,2013-02-19 05:35:00
11:55 PM,46.4,26.6,46,30.14,10.0,North,5.8,-,N/A,,Clear,10,2013-02-19 05:55:00